Flag for Australia Weather past 2 weeks in Cairns, Queensland, Australia

Now
79 °F

Scattered showers. Partly sunny.


Feels Like: 82 °F
Forecast: 76 / 85 °F
Wind: 12 mph from South

Location: Cairns Airport


UV Index: 5 (Moderate)

Visibility: N/A


Pressure: 29.89 "Hg

Humidity: 84%

Dew point: 73 °F

Location of CairnsLocation

Historic Weather in Cairns

°F

Cairns temperature yesterday

Maximum temperature yesterday: 81 °F (at 9:30 AM)
Minimum temperature yesterday: 73 °F (at 4:30 PM)
Average temperature yesterday: 76 °F

Past Weeks' High & Low Weather Summary

 TemperatureHumidityPressure
High88 °F (Apr 13, 1:00 PM)100% (Apr 12, 12:00 PM)30.01 "Hg (Apr 12, 12:00 PM)
Low72 °F (Apr 20, 12:30 AM)48% (Apr 19, 3:30 PM)29.42 "Hg (Apr 12, 5:00 PM)
Average78 °F80%29.85 "Hg
* Reported Apr 10 11:00 AM — Apr 25 11:00 AM, Cairns, Weather by CustomWeather, © 2014

Note: Actual official high and low records may vary slightly from our data, if they occured in-between our weather recording intervals... More about our weather records

Advertising

Historic Weather Conditions — Data for Previous 24 hours

 ConditionsComfort  
Time TempWeatherWind HumidityBarometerVisibility
11:00 AM
Apr 25
77 °FSprinkles. Broken clouds.16 mph94%29.89 "HgN/A
10:30 AM79 °FScattered showers. Broken clouds.12 mph89%29.92 "HgN/A
9:59 AM77 °FScattered showers. Broken clouds.13 mph94%29.92 "HgN/A
9:00 AM77 °FSprinkles. Broken clouds.10 mph89%29.89 "Hg4 mi
8:30 AM77 °FSprinkles. Broken clouds.10 mph89%29.89 "Hg4 mi
8:00 AM75 °FRain showers. Broken clouds.9 mph94%29.89 "Hg4 mi
7:00 AM77 °FScattered showers. Broken clouds.10 mph89%29.86 "Hg4 mi
6:30 AM75 °FScattered showers. Partly sunny.12 mph94%29.86 "Hg2 mi
6:00 AM77 °FSprinkles. Partly cloudy.10 mph89%29.83 "HgN/A
5:30 AM75 °FSprinkles. Partly cloudy.12 mph94%29.83 "Hg5 mi
5:00 AM77 °FSprinkles. Partly cloudy.10 mph89%29.83 "HgN/A
4:30 AM75 °FScattered showers. Partly cloudy.10 mph94%29.80 "HgN/A
4:00 AM77 °FSprinkles. Partly cloudy.13 mph89%29.80 "HgN/A
3:30 AM77 °FScattered showers. Partly cloudy.12 mph89%29.80 "HgN/A
3:00 AM77 °FScattered showers. Partly cloudy.10 mph83%29.83 "HgN/A
2:30 AM77 °FScattered showers. Partly cloudy.12 mph83%29.83 "HgN/A
2:00 AM77 °FScattered showers. Partly cloudy.10 mph83%29.83 "HgN/A
1:30 AM77 °FScattered showers. Partly cloudy.12 mph89%29.83 "HgN/A
1:00 AM77 °FScattered showers. Partly cloudy.12 mph83%29.86 "HgN/A
12:30 AM77 °FScattered showers. Partly cloudy.10 mph89%29.86 "HgN/A
12:00 AM77 °FScattered showers. Partly cloudy.12 mph89%29.86 "HgN/A
11:30 PM
Apr 24
77 °FSprinkles. Partly cloudy.10 mph89%29.86 "HgN/A
11:00 PM77 °FScattered showers. Partly cloudy.12 mph89%29.89 "HgN/A
10:30 PM77 °FSprinkles. Partly cloudy.12 mph89%29.89 "Hg5 mi
10:00 PM75 °FSprinkles. Partly cloudy.12 mph94%29.89 "Hg6 mi
9:30 PM77 °FSprinkles. Partly cloudy.12 mph89%29.89 "Hg6 mi
9:00 PM75 °FSprinkles. Partly cloudy.3 mph94%29.89 "Hg6 mi
8:54 PM75 °FSprinkles. Partly cloudy.5 mph94%29.89 "Hg4 mi
8:30 PM75 °FRain showers. Partly cloudy.8 mph94%29.89 "Hg2 mi
8:00 PM75 °FRain showers. Partly cloudy.2 mph89%29.89 "Hg3 mi
7:30 PM75 °FMixture of precip. Partly cloudy.13 mph94%29.86 "Hg4 mi
7:00 PM75 °FSprinkles. Partly cloudy.8 mph89%29.86 "Hg4 mi
6:30 PM73 °FSprinkles. Partly cloudy.7 mph94%29.83 "Hg3 mi
6:00 PM75 °FSprinkles. Broken clouds.9 mph89%29.83 "Hg3 mi
5:00 PM73 °FSprinkles. Mostly cloudy.12 mph100%29.83 "Hg4 mi
4:30 PM73 °FSprinkles. Mostly cloudy.14 mph100%29.83 "Hg4 mi
4:00 PM75 °FMixture of precip. Broken clouds.16 mph94%29.80 "Hg6 mi
3:30 PM77 °FScattered showers. Broken clouds.12 mph89%29.80 "Hg6 mi
3:00 PM77 °FPartly sunny.8 mph94%29.80 "HgN/A
2:50 PM77 °FBroken clouds.8 mph94%29.80 "HgN/A
2:00 PM75 °FSprinkles. Partly sunny.10 mph100%29.80 "Hg2 mi
1:30 PM75 °FSprinkles. Partly sunny.9 mph94%29.83 "Hg2 mi
1:00 PM75 °FSprinkles. Partly sunny.12 mph100%29.83 "Hg2 mi
12:30 PM77 °FBroken clouds.14 mph94%29.83 "HgN/A
12:00 PM77 °FPartly sunny.8 mph94%29.86 "Hg2 mi
Weather by CustomWeather, © 2014

See weather overview